GW5516 Weather Reports


Display with metric or nautical units.
time (UTC)temp
F
wind
direction
speed
MPH
gust
MPH
rain 1hr
in
rain 24hr
in
rain mn
in
humidity
%
barometer
mb
20260505124631 56 4 8.0 14.0 0.00 0.24 0.24 90 1007.6
20260505124127 56 39 8.0 12.0 0.00 0.24 0.24 91 1007.5
20260505123623 56 32 9.0 12.0 0.00 0.24 0.24 91 1007.3
20260505123120 56 28 10.0 15.0 0.00 0.24 0.24 90 1007.3
20260505122617 57 29 5.0 10.0 0.00 0.24 0.24 91 1007.2
20260505122114 57 25 10.0 15.0 0.00 0.24 0.24 90 1007.0
20260505121610 57 19 12.0 14.0 0.00 0.24 0.24 89 1006.8
20260505121107 58 26 7.0 11.0 0.00 0.24 0.24 90 1007.2
20260505120603 58 16 4.0 11.0 0.00 0.24 0.24 90 1006.8
20260505120059 58 43 9.0 15.0 0.00 0.24 0.24 90 1006.6
20260505115554 58 32 10.0 15.0 0.00 0.24 0.24 91 1006.5
20260505115051 59 25 11.0 11.0 0.00 0.24 0.24 92 1006.6
20260505114548 59 22 7.0 10.0 0.00 0.24 0.24 92 1006.2
20260505114044 59 31 7.0 8.0 0.00 0.24 0.24 93 1006.4
20260505113541 59 23 9.0 11.0 0.00 0.24 0.24 92 1006.5
20260505113038 59 42 4.0 8.0 0.00 0.24 0.24 92 1006.7
20260505112534 60 23 4.0 6.0 0.00 0.24 0.24 93 1006.5
20260505112032 60 27 6.0 11.0 0.00 0.24 0.24 91 1006.7
20260505111526 60 21 6.0 7.0 0.00 0.24 0.24 92 1006.8
20260505111022 60 17 6.0 7.0 0.00 0.24 0.24 92 1006.8
20260505110519 60 21 3.0 8.0 0.02 0.24 0.24 93 1006.7
20260505101951 61 300 5.0 10.0 0.00 0.23 0.23 90 1007.0
20260505101449 61 314 5.0 6.0 0.00 0.23 0.23 90 1006.8
20260505100945 61 27 9.0 10.0 0.00 0.23 0.23 89 1006.0
20260505100443 61 25 2.0 10.0 0.00 0.23 0.23 89 1006.3
20260505095939 61 341 6.0 9.0 0.00 0.23 0.23 90 1006.8
20260505095436 61 335 5.0 5.0 0.00 0.23 0.23 89 1006.3
20260505094932 61 305 17.0 23.0 0.02 0.23 0.23 88 1006.6
20260505094429 61 305 15.0 16.0 0.00 0.23 0.23 89 1006.6
20260505093925 60 271 4.0 5.0 0.00 0.23 0.23 88 1006.3
20260505093422 61 253 2.0 2.0 0.00 0.23 0.23 87 1006.0
20260505092919 61 145 3.0 4.0 0.00 0.23 0.23 86 1005.5
20260505092417 61 150 7.0 7.0 0.02 0.23 0.23 85 1005.4
20260505091914 61 166 7.0 13.0 0.05 0.23 0.23 85 1005.2
20260505091412 62 139 10.0 18.0 0.05 0.22 0.22 83 1004.9
20260505090909 61 149 10.0 14.0 0.07 0.22 0.22 85 1004.8
20260505090408 62 141 9.0 15.0 0.05 0.22 0.22 82 1004.5
20260505085905 62 134 13.0 18.0 0.00 0.21 0.21 82 1003.9
20260505085402 62 142 16.0 18.0 0.00 0.21 0.21 85 1004.2
20260505084900 61 213 13.0 16.0 0.02 0.21 0.21 88 1004.4
20260505084358 62 152 12.0 22.0 0.02 0.21 0.21 89 1003.8
20260505083856 62 138 22.0 23.0 0.00 0.20 0.20 89 1003.6
20260505083353 61 141 17.0 23.0 0.05 0.20 0.20 93 1004.2
20260505082849 61 145 13.0 17.0 0.05 0.20 0.20 94 1005.0
20260505082345 61 166 9.0 15.0 0.05 0.20 0.20 94 1005.6
20260505081842 61 148 11.0 15.0 0.07 0.20 0.20 95 1006.1
20260505081339 61 157 8.0 13.0 0.07 0.19 0.19 96 1006.3
20260505080836 60 215 13.0 16.0 0.14 0.18 0.18 96 1007.0
20260505080331 61 216 8.0 11.0 0.12 0.18 0.18 95 1006.8
20260505075827 61 237 6.0 9.0 0.07 0.16 0.16 96 1007.0
20260505075324 61 169 10.0 13.0 0.12 0.16 0.16 96 1007.2
20260505074822 61 207 13.0 23.0 0.17 0.15 0.15 95 1007.4
20260505074319 61 220 14.0 20.0 0.12 0.13 0.13 95 1007.7
20260505073816 61 230 9.0 20.0 0.14 0.12 0.12 94 1007.4
20260505073314 61 233 26.0 26.0 0.21 0.11 0.11 95 1007.3
20260505072811 61 211 16.0 29.0 0.21 0.09 0.09 95 1007.3
20260505072307 61 206 11.0 19.0 0.17 0.07 0.07 92 1007.4
20260505071803 62 224 14.0 30.0 0.14 0.06 0.06 91 1007.2
20260505071259 62 237 16.0 24.0 0.14 0.05 0.05 89 1007.3
20260505070757 62 194 14.0 22.0 0.14 0.03 0.03 87 1007.4
20260505070254 63 203 7.0 17.0 0.09 0.02 0.02 85 1007.4
20260505065749 63 194 12.0 21.0 0.07 0.01 0.01 81 1007.4
20260505065246 64 199 11.0 16.0 0.05 0.01 0.01 80 1006.8
20260505064743 65 212 13.0 16.0 0.00 0.00 0.00 76 1006.7
20260505064240 66 161 18.0 18.0 0.00 0.00 0.00 74 1006.5
20260505063737 66 182 10.0 18.0 0.00 0.00 0.00 73 1006.4
20260505063234 66 202 8.0 16.0 0.00 0.00 0.00 73 1006.1
20260505062730 67 147 8.0 17.0 0.00 0.00 0.00 70 1006.1
20260505062228 67 149 10.0 16.0 0.00 0.00 0.00 70 1005.9
20260505061725 67 155 11.0 23.0 0.00 0.00 0.00 70 1006.0
20260505061223 67 151 13.0 16.0 0.00 0.00 0.00 69 1005.9
20260505060720 67 150 13.0 18.0 0.00 0.00 0.00 70 1006.2
20260505060217 67 153 11.0 18.0 0.00 0.00 0.00 70 1006.0
20260505055712 66 148 10.0 14.0 0.00 0.00 0.00 70 1006.2
20260505055209 66 165 11.0 15.0 0.00 0.00 0.00 70 1006.4
20260505054706 66 146 11.0 13.0 0.00 0.00 0.00 71 1006.1
20260505054204 66 152 11.0 15.0 0.00 0.00 0.00 70 1006.1
20260505053702 66 154 9.0 11.0 0.00 0.00 0.00 71 1006.3
20260505053158 66 157 6.0 9.0 0.00 0.00 0.00 71 1006.2
20260505052655 66 166 9.0 11.0 0.00 0.00 0.00 71 1006.4
20260505052152 66 151 7.0 12.0 0.00 0.00 0.00 70 1006.4
20260505051649 66 158 12.0 13.0 0.00 0.00 0.00 70 1006.3
20260505051148 66 142 7.0 13.0 0.00 0.00 0.00 71 1006.1
20260505050645 66 141 9.0 14.0 0.00 0.00 0.00 71 1006.3
20260505050144 66 149 10.0 12.0 0.00 0.00 0.00 71 1006.1
20260505041618 67 140 10.0 11.0 0.00 0.00 0.00 70 1006.6
20260505041115 67 141 6.0 13.0 0.00 0.00 0.00 69 1007.0
20260505040613 67 133 9.0 11.0 0.00 0.00 0.00 70 1006.8
20260505040110 67 132 9.0 11.0 0.00 0.00 0.00 70 1006.7
20260505035606 67 133 10.0 11.0 0.00 0.00 0.00 70 1007.2
20260505035102 67 142 10.0 10.0 0.00 0.00 0.00 70 1007.2
20260505034559 67 140 8.0 11.0 0.00 0.00 0.00 70 1007.3
20260505034056 67 135 7.0 10.0 0.00 0.00 0.00 70 1007.0
20260505033553 67 121 6.0 11.0 0.00 0.00 0.00 70 1007.4
20260505033051 67 127 7.0 8.0 0.00 0.00 0.00 70 1007.3
20260505032549 67 150 5.0 7.0 0.00 0.00 0.00 70 1007.6
20260505032045 67 141 4.0 7.0 0.00 0.00 0.00 70 1007.5
20260505031542 67 147 4.0 8.0 0.00 0.00 0.00 69 1007.6
20260505031038 68 157 7.0 8.0 0.00 0.00 0.00 69 1007.5
20260505030536 68 149 6.0 9.0 0.00 0.00 0.00 68 1007.5
20260505030032 68 151 7.0 10.0 0.00 0.00 0.00 68 1007.7
20260505025527 68 141 6.0 8.0 0.00 0.00 0.00 69 1007.4
20260505025027 68 149 4.0 7.0 0.00 0.00 0.00 68 1007.5
20260505024523 68 152 7.0 9.0 0.00 0.00 0.00 67 1007.3
20260505024020 68 143 7.0 7.0 0.00 0.00 0.00 67 1007.2
20260505023517 69 150 5.0 7.0 0.00 0.00 0.00 67 1007.4
20260505023015 69 166 5.0 6.0 0.00 0.00 0.00 66 1007.3
20260505022513 69 161 4.0 6.0 0.00 0.00 0.00 66 1007.4
20260505022010 69 190 3.0 6.0 0.00 0.00 0.00 65 1007.1
20260505021506 69 218 4.0 7.0 0.00 0.00 0.00 65 1007.0
20260505021002 70 207 3.0 6.0 0.00 0.00 0.00 65 1007.0
20260505020457 70 191 7.0 9.0 0.00 0.00 0.00 64 1006.8
20260505015954 70 195 6.0 8.0 0.00 0.00 0.00 63 1007.1
20260505015451 71 192 4.0 12.0 0.00 0.00 0.00 63 1007.0
20260505014948 71 223 14.0 15.0 0.00 0.00 0.00 62 1006.8
20260505014445 71 222 9.0 12.0 0.00 0.00 0.00 62 1006.6
20260505013942 71 220 10.0 13.0 0.00 0.00 0.00 61 1006.6
20260505013439 72 215 12.0 17.0 0.00 0.00 0.00 60 1006.7
20260505012937 72 254 5.0 16.0 0.00 0.00 0.00 60 1006.5
20260505012435 72 229 12.0 13.0 0.00 0.00 0.00 60 1006.5
20260505011931 71 245 13.0 17.0 0.00 0.00 0.00 61 1006.5
20260505011427 71 208 7.0 15.0 0.00 0.00 0.00 61 1006.3
20260505010924 71 198 5.0 6.0 0.00 0.00 0.00 62 1006.4
20260505010420 71 171 4.0 6.0 0.00 0.00 0.00 62 1006.4
20260505005916 72 170 6.0 8.0 0.00 0.00 0.00 61 1006.2
20260505005413 72 174 6.0 8.0 0.00 0.00 0.00 61 1006.1
20260505004911 72 191 4.0 10.0 0.00 0.00 0.00 61 1006.0
20260505004407 72 220 12.0 12.0 0.00 0.00 0.00 60 1006.0
20260505003904 72 170 6.0 8.0 0.00 0.00 0.00 60 1005.8
20260505003401 73 156 5.0 7.0 0.00 0.00 0.00 60 1006.0
20260505002857 73 169 6.0 7.0 0.00 0.00 0.00 60 1005.7
20260505002354 73 180 5.0 7.0 0.00 0.00 0.00 59 1005.7
20260505001853 73 215 6.0 9.0 0.00 0.00 0.00 59 1005.7
20260505001349 73 205 4.0 10.0 0.00 0.00 0.00 58 1005.9
20260505000846 73 190 6.0 7.0 0.00 0.00 0.00 58 1006.0
20260505000344 74 176 6.0 10.0 0.00 0.00 0.00 57 1005.8
20260504235840 74 166 7.0 13.0 0.00 0.00 0.00 56 1005.6
20260504235338 74 205 8.0 11.0 0.00 0.00 0.00 56 1005.8
20260504234834 75 183 9.0 14.0 0.00 0.00 0.00 54 1005.7
20260504234332 75 168 13.0 18.0 0.00 0.00 0.00 53 1005.8
20260504233828 75 177 11.0 13.0 0.00 0.00 0.00 54 1006.0
20260504233324 75 207 13.0 17.0 0.00 0.00 0.00 53 1005.8
20260504232821 75 175 7.0 14.0 0.00 0.00 0.00 54 1005.7
20260504232318 76 225 10.0 18.0 0.00 0.00 0.00 53 1005.7
20260504231815 76 233 13.0 21.0 0.00 0.00 0.00 52 1005.8
20260504231311 77 227 15.0 21.0 0.00 0.00 0.00 52 1005.7
20260504230808 77 174 15.0 16.0 0.00 0.00 0.00 52 1005.8
20260504230306 77 164 10.0 15.0 0.00 0.00 0.00 52 1005.7
20260504225804 77 174 11.0 18.0 0.00 0.00 0.00 50 1005.9
20260504225300 77 166 9.0 17.0 0.00 0.00 0.00 51 1005.9
20260504224757 77 198 22.0 25.0 0.00 0.00 0.00 49 1005.8
20260504224255 77 218 12.0 17.0 0.00 0.00 0.00 51 1005.8
20260504223751 78 160 12.0 17.0 0.00 0.00 0.00 51 1005.8
20260504223246 78 176 11.0 19.0 0.00 0.00 0.00 50 1005.8
20260504222744 77 175 20.0 25.0 0.00 0.00 0.00 48 1005.8
20260504222240 78 179 11.0 20.0 0.00 0.00 0.00 50 1006.0
20260504221738 78 159 15.0 28.0 0.00 0.00 0.00 50 1005.9
20260504221235 78 211 15.0 23.0 0.00 0.00 0.00 49 1005.9
20260504220731 78 157 21.0 24.0 0.00 0.00 0.00 50 1005.9
20260504220229 79 188 16.0 18.0 0.00 0.00 0.00 50 1005.8
20260504215726 78 231 21.0 27.0 0.00 0.00 0.00 50 1005.9
20260504215223 78 226 10.0 19.0 0.00 0.00 0.00 49 1005.9
20260504214718 78 189 15.0 24.0 0.00 0.00 0.00 49 1005.9
20260504214215 79 189 14.0 24.0 0.00 0.00 0.00 49 1005.8
20260504213712 78 180 10.0 25.0 0.00 0.00 0.00 50 1005.9
20260504213208 79 176 14.0 22.0 0.00 0.00 0.00 50 1006.0
20260504212705 78 200 14.0 19.0 0.00 0.00 0.00 49 1005.9
20260504212202 78 185 12.0 26.0 0.00 0.00 0.00 49 1006.1
20260504211659 78 197 12.0 22.0 0.00 0.00 0.00 51 1006.2
20260504211155 78 168 13.0 24.0 0.00 0.00 0.00 50 1006.2
20260504210653 79 221 23.0 25.0 0.00 0.00 0.00 50 1006.3
20260504210149 78 192 16.0 23.0 0.00 0.00 0.00 50 1006.1
20260504205647 78 216 11.0 22.0 0.00 0.00 0.00 51 1006.5
20260504205144 78 193 9.0 24.0 0.00 0.00 0.00 52 1006.6
20260504204643 78 231 17.0 30.0 0.00 0.00 0.00 50 1006.6
20260504204141 78 226 23.0 28.0 0.00 0.00 0.00 50 1006.6
20260504203639 79 189 24.0 30.0 0.00 0.00 0.00 50 1006.7
20260504203137 78 201 11.0 22.0 0.00 0.00 0.00 51 1006.6
20260504202637 78 180 16.0 25.0 0.00 0.00 0.00 49 1007.0
20260504202134 78 228 26.0 28.0 0.00 0.00 0.00 49 1007.0
20260504201631 78 199 14.0 33.0 0.00 0.00 0.00 49 1007.0
20260504201129 78 155 20.0 25.0 0.00 0.00 0.00 50 1007.2
20260504200626 78 179 27.0 35.0 0.00 0.00 0.00 49 1007.3
20260504200122 78 223 20.0 27.0 0.00 0.00 0.00 52 1007.3
20260504195618 78 199 13.0 26.0 0.00 0.00 0.00 51 1007.3
20260504195114 78 204 17.0 24.0 0.00 0.00 0.00 50 1007.3
20260504194611 78 185 22.0 27.0 0.00 0.00 0.00 50 1007.2
20260504194107 78 171 13.0 34.0 0.00 0.00 0.00 51 1007.3
20260504193603 77 243 21.0 24.0 0.00 0.00 0.00 51 1007.1
20260504193102 77 245 16.0 35.0 0.00 0.00 0.00 50 1007.4
20260504192600 77 229 14.0 32.0 0.00 0.00 0.00 52 1007.5
20260504192058 78 224 9.0 22.0 0.00 0.00 0.00 52 1007.3
20260504191556 77 185 17.0 26.0 0.00 0.00 0.00 50 1007.5
20260504191051 77 175 19.0 27.0 0.00 0.00 0.00 51 1007.5
20260504190548 77 193 13.0 27.0 0.00 0.00 0.00 51 1007.5
20260504190044 77 193 17.0 29.0 0.00 0.00 0.00 51 1007.5
20260504185541 77 192 17.0 27.0 0.00 0.00 0.00 50 1007.5
20260504185038 77 165 16.0 25.0 0.00 0.00 0.00 52 1007.4
20260504184533 77 180 13.0 18.0 0.00 0.00 0.00 53 1007.3
20260504184029 77 160 20.0 30.0 0.00 0.00 0.00 51 1007.4
20260504183526 77 212 25.0 29.0 0.00 0.00 0.00 50 1007.7
20260504183024 76 219 15.0 25.0 0.00 0.00 0.00 52 1007.4
20260504182520 77 234 21.0 23.0 0.00 0.00 0.00 52 1007.7
20260504182018 77 200 10.0 20.0 0.00 0.00 0.00 51 1007.6
20260504181515 76 206 27.0 33.0 0.00 0.00 0.00 50 1007.7
20260504181014 76 165 23.0 26.0 0.00 0.00 0.00 50 1007.6
20260504180512 76 214 20.0 28.0 0.00 0.00 0.00 51 1007.7
20260504180010 76 185 23.0 25.0 0.00 0.00 0.00 50 1007.6
20260504175507 76 178 19.0 25.0 0.00 0.00 0.00 51 1007.7
20260504175004 76 207 9.0 22.0 0.00 0.00 0.00 52 1007.5
20260504174502 75 175 16.0 23.0 0.00 0.00 0.00 51 1007.7
20260504173959 76 181 23.0 29.0 0.00 0.00 0.00 51 1007.8
20260504173455 75 209 15.0 33.0 0.00 0.00 0.00 52 1007.6
20260504172953 75 189 16.0 36.0 0.00 0.00 0.00 51 1007.9
20260504172448 75 200 15.0 29.0 0.00 0.00 0.00 51 1007.9
20260504171945 75 208 9.0 26.0 0.00 0.00 0.00 51 1008.2
20260504171442 75 217 22.0 27.0 0.00 0.00 0.00 51 1008.0
20260504170939 74 164 14.0 32.0 0.00 0.00 0.00 54 1008.1
20260504170436 75 235 14.0 24.0 0.00 0.00 0.00 52 1008.0
20260504160355 73 162 17.0 29.0 0.00 0.00 0.00 52 1008.3
20260504150820 71 220 18.0 26.0 0.00 0.00 0.00 53 1008.9
20260504150316 70 230 13.0 30.0 0.00 0.00 0.00 53 1008.9
20260504141246 69 163 16.0 21.0 0.00 0.00 0.00 53 1009.1
20260504140742 68 186 19.0 26.0 0.00 0.00 0.00 54 1009.5
20260504140238 68 186 12.0 20.0 0.00 0.00 0.00 55 1009.4
20260504130707 65 167 17.0 19.0 0.00 0.00 0.00 58 1009.4
20260504130203 65 177 16.0 37.0 0.00 0.00 0.00 58 1009.5